Canadian, TX

8:05 AM CST on December 14, 2019 (GMT -0600)
Hemphill County

Weather History for KHHF - October, 2019

Change the Weather History Date:

Wednesday, October 30, 2019

  Actual Average (KPPA) Record (KPPA)
Temperature  
Mean Temperature 28 °F -  
Max Temperature 33 °F 65 °F 88 °F (1968)
Min Temperature 22 °F 39 °F 12 °F (1993)
Degree Days  
Heating Degree Days 37    
Moisture  
Dew Point 24 °F    
Average Humidity 80    
Maximum Humidity 94    
Minimum Humidity 68    
Precipitation  
Precipitation 0.00 in - - ()
Sea Level Pressure  
Sea Level Pressure 30.27 in    
Wind  
Wind Speed 13 mph ()    
Max Wind Speed 22 mph    
Max Gust Speed 29 mph    
Visibility 9.4 miles    
Events Snow    
Averages and records for this station are not official NWS values.
T = Trace of Precipitation, MM = Missing Value Source: Averaged Metar Reports

Daily Weather History Graph

Daily Weather History Graph

Search for Another Location

Airport or City:

Astronomy

Oct. 30, 2019 Rise Set
Actual Time 8:01 AM CDT 6:48 PM CDT
Civil Twilight 7:35 AM CDT 7:14 PM CDT
Nautical Twilight 7:05 AM CDT 7:44 PM CDT
Astronomical Twilight 6:35 AM CDT 8:14 PM CDT
Moon 10:43 AM CDT (10/30) 9:01 PM CDT (10/30)
Length of Visible Light 11h 39m
Length of Day
10h 46m
Waxing Crescent, 9% of the Moon is Illuminated
Oct 30
Waxing Crescent
Nov 4
First Quarter
Nov 12
Full
Nov 19
Last Quarter
Nov 26
New

Hourly Weather History & Observations

Time (CDT) Temp. Windchill Dew Point Humidity Pressure Visibility Wind Dir Wind Speed Gust Speed Precip Events Conditions
12:15 AM 34.2 °F 24.8 °F 26.6 °F 74% 30.18 in 10.0 mi NE 13.8 mph 18.4 mph N/A   Overcast
12:35 AM 34.2 °F 25.7 °F 26.6 °F 74% 30.18 in 10.0 mi NE 11.5 mph 16.1 mph N/A   Overcast
12:55 AM 33.8 °F 24.3 °F 26.6 °F 75% 30.18 in 10.0 mi NE 13.8 mph - N/A   Overcast
1:15 AM 33.4 °F 25.4 °F 27.0 °F 77% 30.18 in 10.0 mi NE 10.4 mph - N/A   Overcast
1:35 AM 33.4 °F 22.7 °F 27.1 °F 78% 30.18 in 10.0 mi NNE 17.3 mph 21.9 mph N/A   Overcast
1:55 AM 32.9 °F 25.3 °F 27.0 °F 79% 30.19 in 10.0 mi NNE 9.2 mph - N/A   Overcast
2:15 AM 32.4 °F 23.0 °F 27.0 °F 80% 30.19 in 10.0 mi NNE 12.7 mph 18.4 mph N/A   Overcast
2:35 AM 32.2 °F 20.7 °F 26.4 °F 79% 30.18 in 10.0 mi NNE 18.4 mph 24.2 mph N/A   Overcast
2:55 AM 32.2 °F 23.2 °F 26.2 °F 79% 30.17 in 10.0 mi NNE 11.5 mph 17.3 mph N/A   Overcast
3:15 AM 32.2 °F 22.3 °F 26.4 °F 79% 30.16 in 10.0 mi NNE 13.8 mph 18.4 mph N/A   Overcast
3:35 AM 32.2 °F 21.8 °F 27.1 °F 82% 30.16 in 10.0 mi NNE 15.0 mph 20.7 mph N/A   Overcast
3:55 AM 32.2 °F 23.2 °F 26.6 °F 80% 30.17 in 10.0 mi NNE 11.5 mph - N/A   Overcast
4:15 AM 32.2 °F 22.7 °F 27.3 °F 82% 30.17 in 10.0 mi NNE 12.7 mph - N/A   Overcast
4:35 AM 32.2 °F 23.8 °F 27.3 °F 82% 30.17 in 10.0 mi NNE 10.4 mph 17.3 mph N/A   Overcast
4:55 AM 32.2 °F 22.7 °F 27.0 °F 81% 30.17 in 10.0 mi NNE 12.7 mph 16.1 mph N/A   Overcast
5:15 AM 32.2 °F 22.3 °F 27.1 °F 82% 30.17 in 10.0 mi NNE 13.8 mph 19.6 mph N/A   Overcast
5:35 AM 32.2 °F 22.3 °F 27.1 °F 82% 30.17 in 10.0 mi NNE 13.8 mph 19.6 mph N/A   Overcast
5:55 AM 32.2 °F 22.7 °F 27.1 °F 82% 30.17 in 10.0 mi NNE 12.7 mph 18.4 mph N/A   Overcast
6:15 AM 32.2 °F 21.8 °F 26.8 °F 80% 30.18 in 10.0 mi NNE 15.0 mph 18.4 mph N/A   Overcast
6:35 AM 32.0 °F 21.6 °F 27.0 °F 82% 30.18 in 10.0 mi NNE 15.0 mph - N/A   Overcast
6:55 AM 32.0 °F 22.1 °F 26.6 °F 80% 30.18 in 10.0 mi NNE 13.8 mph - N/A   Overcast
7:15 AM 32.0 °F 21.6 °F 26.6 °F 80% 30.18 in 10.0 mi North 15.0 mph 19.6 mph N/A   Overcast
7:35 AM 32.0 °F 23.0 °F 26.6 °F 80% 30.19 in 10.0 mi North 11.5 mph - N/A   Overcast
7:55 AM 32.0 °F 23.6 °F 27.5 °F 83% 30.20 in 7.0 mi North 10.4 mph 18.4 mph N/A   Overcast
8:15 AM 31.6 °F 22.1 °F 28.0 °F 87% 30.20 in 7.0 mi NNE 12.7 mph 16.1 mph N/A   Overcast
8:35 AM 31.5 °F 22.3 °F 28.9 °F 90% 30.22 in 5.0 mi NNE 11.5 mph 17.3 mph N/A   Overcast
8:55 AM 30.9 °F 19.8 °F 28.9 °F 92% 30.24 in 3.0 mi North 16.1 mph 21.9 mph N/A   Overcast
9:15 AM 30.7 °F 19.6 °F 29.1 °F 94% 30.24 in 3.0 mi North 16.1 mph 21.9 mph N/A   Overcast
9:35 AM 30.0 °F 19.1 °F 28.2 °F 93% 30.25 in 4.0 mi North 15.0 mph 21.9 mph N/A   Overcast
9:55 AM 30.0 °F 18.7 °F 27.9 °F 92% 30.26 in 5.0 mi North 16.1 mph 20.7 mph N/A   Overcast
10:15 AM 29.1 °F 17.1 °F 26.2 °F 89% 30.28 in 10.0 mi North 17.3 mph 27.6 mph N/A   Overcast
10:35 AM 29.1 °F 17.9 °F 26.6 °F 90% 30.28 in 10.0 mi North 15.0 mph 20.7 mph N/A   Overcast
10:55 AM 29.1 °F 17.5 °F 26.4 °F 90% 30.28 in 7.0 mi NNE 16.1 mph 23.0 mph N/A   Overcast
11:15 AM 29.1 °F 17.5 °F 26.4 °F 90% 30.28 in 10.0 mi North 16.1 mph 21.9 mph N/A   Overcast
11:35 AM 29.1 °F 17.9 °F 25.9 °F 88% 30.29 in 10.0 mi North 15.0 mph 24.2 mph N/A   Overcast
11:55 AM 30.0 °F 18.7 °F 26.1 °F 85% 30.29 in 10.0 mi North 16.1 mph 24.2 mph N/A   Overcast
12:15 PM 29.7 °F 17.4 °F 25.9 °F 86% 30.30 in 10.0 mi North 18.4 mph 26.5 mph N/A   Overcast
12:35 PM 29.5 °F 17.6 °F 25.2 °F 84% 30.30 in 10.0 mi North 17.3 mph 24.2 mph N/A   Overcast
12:55 PM 30.0 °F 18.7 °F 25.9 °F 85% 30.30 in 10.0 mi North 16.1 mph 21.9 mph N/A   Overcast
1:15 PM 29.8 °F 17.7 °F 25.2 °F 83% 30.30 in 10.0 mi North 18.4 mph 25.3 mph N/A   Overcast
1:35 PM 29.3 °F 17.7 °F 24.6 °F 83% 30.30 in 10.0 mi North 16.1 mph 23.0 mph N/A   Overcast
1:55 PM 28.9 °F 16.9 °F 24.1 °F 82% 30.29 in 10.0 mi North 17.3 mph 24.2 mph N/A   Overcast
2:15 PM 29.7 °F 18.2 °F 24.1 °F 80% 30.28 in 10.0 mi North 16.1 mph 24.2 mph N/A   Overcast
2:35 PM 29.3 °F 16.2 °F 23.7 °F 80% 30.29 in 10.0 mi NNW 20.7 mph 25.3 mph N/A   Overcast
2:55 PM 28.9 °F 16.1 °F 23.0 °F 78% 30.29 in 10.0 mi North 19.6 mph 24.2 mph N/A   Overcast
3:15 PM 29.8 °F 17.7 °F 23.5 °F 77% 30.29 in 10.0 mi North 18.4 mph 25.3 mph N/A   Overcast
3:35 PM 30.0 °F 17.2 °F 23.4 °F 76% 30.29 in 10.0 mi North 20.7 mph 25.3 mph N/A   Overcast
3:55 PM 30.2 °F 17.1 °F 23.2 °F 75% 30.30 in 10.0 mi NNW 21.9 mph 26.5 mph N/A Snow Light Snow
4:15 PM 30.7 °F 17.8 °F 23.7 °F 75% 30.31 in 10.0 mi NNW 21.9 mph 28.8 mph N/A Snow Light Snow
4:35 PM 30.7 °F 18.8 °F 23.5 °F 75% 30.32 in 10.0 mi NNW 18.4 mph 25.3 mph N/A Snow Light Snow
5:15 PM 31.8 °F 19.9 °F 22.8 °F 69% 30.33 in 10.0 mi North 19.6 mph 24.2 mph N/A   Overcast
5:35 PM 31.1 °F 20.1 °F 22.3 °F 70% 30.33 in 10.0 mi North 16.1 mph 23.0 mph N/A   Overcast
5:55 PM 31.1 °F 19.7 °F 21.9 °F 69% 30.34 in 10.0 mi North 17.3 mph 24.2 mph N/A   Overcast
6:15 PM 30.7 °F 18.5 °F 21.2 °F 68% 30.34 in 10.0 mi NNW 19.6 mph 25.3 mph N/A   Overcast
6:35 PM 30.2 °F 18.5 °F 21.7 °F 71% 30.35 in 10.0 mi North 17.3 mph 21.9 mph N/A   Overcast
7:15 PM 30.0 °F 20.0 °F 21.2 °F 70% 30.35 in 10.0 mi NNW 12.7 mph 18.4 mph N/A   Overcast
7:35 PM 30.0 °F 20.0 °F 21.2 °F 70% 30.36 in 10.0 mi NNW 12.7 mph 17.3 mph N/A   Overcast
7:55 PM 29.1 °F 17.5 °F 20.1 °F 69% 30.37 in 10.0 mi NNW 16.1 mph - N/A   Overcast
8:15 PM 28.8 °F 17.5 °F 19.4 °F 68% 30.38 in 10.0 mi NNW 15.0 mph - N/A   Overcast
8:35 PM 28.4 °F 18.0 °F 19.8 °F 70% 30.39 in 10.0 mi NW 12.7 mph - N/A   Overcast
8:55 PM 27.5 °F 16.8 °F 19.2 °F 71% 30.40 in 10.0 mi NNW 12.7 mph - N/A   Mostly Cloudy
9:15 PM 26.8 °F 18.5 °F 19.2 °F 73% 30.40 in 10.0 mi NW 8.1 mph - N/A   Mostly Cloudy
9:35 PM 26.6 °F 17.5 °F 19.4 °F 74% 30.40 in 10.0 mi NW 9.2 mph - N/A   Overcast
9:55 PM 25.0 °F 17.1 °F 18.7 °F 77% 30.40 in 10.0 mi NW 6.9 mph - N/A   Scattered Clouds
10:15 PM 23.5 °F 15.4 °F 18.5 °F 81% 30.40 in 10.0 mi WNW 6.9 mph - N/A   Clear
10:35 PM 24.4 °F 14.9 °F 18.7 °F 79% 30.40 in 10.0 mi WNW 9.2 mph - N/A   Clear
10:55 PM 23.9 °F 13.5 °F 18.0 °F 78% 30.41 in 10.0 mi NW 10.4 mph - N/A   Clear
11:15 PM 23.0 °F 15.8 °F 17.4 °F 79% 30.40 in 10.0 mi NW 5.8 mph - N/A   Clear
11:35 PM 22.1 °F 14.7 °F 17.2 °F 82% 30.40 in 10.0 mi WNW 5.8 mph - N/A   Clear
11:55 PM 22.5 °F 13.2 °F 16.9 °F 79% 30.40 in 10.0 mi WNW 8.1 mph - N/A   Clear